{"data":{"norad_id":38339,"epoch":"2026-05-25T04:44:21.852960Z","epoch_age_seconds":57884,"freshness":"FRESH","line1":"1 38339U 12025C   26145.19747515  .00000424  00000+0  69573-4 0  9996","line2":"2 38339  98.1349 240.9738 0007279  22.3569 337.7956 14.75775590752595","mean_motion":14.7577559,"eccentricity":0.0007279,"inclination_deg":98.1349,"raan_deg":240.9738,"arg_perigee_deg":22.3569,"mean_anomaly_deg":337.7956,"bstar":6.9573e-5,"rev_number":75259,"period_min":97.575810967303,"perigee_km":637.57988197839,"apogee_km":647.80080242317,"semimajor_km":7020.8273422008,"source":"CELESTRAK","updated_at":"2026-05-25T13:37:55.300557Z"}}